| time (UTC) | temp F | wind direction | speed MPH | gust MPH | rain 1hr in | rain 24hr in | rain mn in | humidity % | barometer mb |
| 20260506190110 | 46 | 213 | 0.0 | 0.0 | 0.13 | 1.15 | 1.15 | 94 | 1007.7 |
| 20260506181109 | 46 | 169 | 0.0 | 0.0 | 0.06 | 1.04 | 1.04 | 94 | 1007.3 |
| 20260506180109 | 46 | 183 | 0.0 | 0.0 | 0.05 | 1.02 | 1.02 | 94 | 1007.1 |
| 20260506172112 | 47 | 204 | 0.0 | 0.0 | 0.02 | 0.98 | 0.98 | 94 | 1006.9 |
| 20260506171112 | 47 | 204 | 0.0 | 0.0 | 0.03 | 0.98 | 0.98 | 94 | 1006.9 |
| 20260506165112 | 47 | 225 | 0.0 | 0.0 | 0.06 | 0.98 | 0.98 | 94 | 1006.7 |
| 20260506164112 | 47 | 177 | 0.0 | 0.0 | 0.09 | 0.98 | 0.98 | 94 | 1006.7 |
| 20260506163112 | 47 | 162 | 0.0 | 0.0 | 0.11 | 0.97 | 0.97 | 94 | 1006.7 |
| 20260506160111 | 47 | 162 | 0.0 | 0.0 | 0.13 | 0.94 | 0.94 | 94 | 1006.7 |
| 20260506154111 | 47 | 162 | 0.0 | 0.0 | 0.13 | 0.89 | 0.89 | 94 | 1006.8 |
| 20260506151111 | 47 | 153 | 0.0 | 0.0 | 0.11 | 0.82 | 0.82 | 94 | 1006.8 |
| 20260506144111 | 47 | 180 | 0.0 | 0.0 | 0.13 | 0.76 | 0.76 | 94 | 1006.9 |
| 20260506143111 | 47 | 213 | 0.0 | 1.0 | 0.13 | 0.74 | 0.74 | 93 | 1006.8 |
| 20260506134110 | 47 | 173 | 0.0 | 0.0 | 0.10 | 0.64 | 0.64 | 93 | 1006.9 |
| 20260506133110 | 47 | 182 | 0.0 | 0.0 | 0.09 | 0.61 | 0.61 | 93 | 1006.8 |
| 20260506131110 | 47 | 175 | 0.0 | 0.0 | 0.07 | 0.57 | 0.57 | 93 | 1006.7 |
| 20260506130110 | 47 | 180 | 0.0 | 0.0 | 0.08 | 0.56 | 0.56 | 93 | 1006.6 |
| 20260506123110 | 47 | 148 | 0.0 | 1.0 | 0.06 | 0.52 | 0.52 | 93 | 1006.5 |
| 20260506122109 | 47 | 180 | 0.0 | 0.0 | 0.06 | 0.51 | 0.51 | 93 | 1006.4 |
| 20260506121109 | 47 | 169 | 0.0 | 0.0 | 0.05 | 0.50 | 0.50 | 93 | 1006.4 |
| 20260506115109 | 47 | 204 | 0.0 | 2.0 | 0.03 | 0.47 | 0.47 | 93 | 1006.3 |
| 20260506114109 | 47 | 161 | 0.0 | 0.0 | 0.02 | 0.46 | 0.46 | 93 | 1006.3 |
| 20260506113109 | 47 | 168 | 0.0 | 0.0 | 0.02 | 0.46 | 0.46 | 93 | 1006.2 |
| 20260506112108 | 47 | 195 | 0.0 | 0.0 | 0.02 | 0.46 | 0.46 | 93 | 1006.3 |
| 20260506103113 | 46 | 150 | 0.0 | 0.0 | 0.04 | 0.43 | 0.43 | 94 | 1006.4 |
| 20260506102113 | 46 | 153 | 0.0 | 0.0 | 0.05 | 0.43 | 0.43 | 93 | 1006.3 |
| 20260506100113 | 46 | 159 | 0.0 | 0.0 | 0.06 | 0.42 | 0.42 | 93 | 1006.4 |
| 20260506091113 | 46 | 192 | 0.0 | 0.0 | 0.06 | 0.37 | 0.37 | 94 | 1006.2 |
| 20260506085112 | 45 | 174 | 0.0 | 0.0 | 0.07 | 0.35 | 0.35 | 93 | 1006.1 |
| 20260506084112 | 45 | 182 | 0.0 | 0.0 | 0.06 | 0.34 | 0.34 | 94 | 1006.0 |
| 20260506083112 | 45 | 148 | 0.0 | 0.0 | 0.06 | 0.33 | 0.33 | 93 | 1006.0 |
| 20260506082112 | 44 | 177 | 0.0 | 1.0 | 0.06 | 0.32 | 0.32 | 93 | 1005.9 |
| 20260506080112 | 44 | 209 | 0.0 | 1.0 | 0.05 | 0.30 | 0.30 | 93 | 1005.7 |
| 20260506073112 | 44 | 205 | 0.0 | 0.0 | 0.03 | 0.28 | 0.27 | 93 | 1005.6 |
| 20260506072112 | 43 | 157 | 0.0 | 0.0 | 0.03 | 0.28 | 0.26 | 93 | 1005.6 |
| 20260506071111 | 43 | 184 | 0.0 | 0.0 | 0.03 | 0.27 | 0.25 | 93 | 1005.5 |
| 20260506070111 | 43 | 203 | 0.0 | 0.0 | 0.04 | 0.27 | 0.25 | 93 | 1005.4 |
| 20260506062111 | 42 | 213 | 0.0 | 1.0 | 0.06 | 0.26 | 0.23 | 93 | 1005.2 |
| 20260506061111 | 42 | 155 | 0.0 | 0.0 | 0.06 | 0.25 | 0.22 | 93 | 1005.4 |
| 20260506051110 | 42 | 178 | 0.0 | 3.0 | 0.12 | 0.20 | 0.16 | 92 | 1005.7 |
| 20260506042110 | 42 | 132 | 0.0 | 0.0 | 0.05 | 0.11 | 0.06 | 90 | 1005.8 |
| 20260506041110 | 42 | 132 | 0.0 | 0.0 | 0.03 | 0.09 | 0.04 | 89 | 1005.8 |
| 20260506035110 | 43 | 267 | 0.0 | 0.0 | 0.02 | 0.09 | 0.02 | 88 | 1005.7 |
| 20260506033110 | 44 | 187 | 0.0 | 0.0 | 0.01 | 0.09 | 0.01 | 87 | 1005.8 |
| 20260506032110 | 44 | 177 | 0.0 | 0.0 | 0.01 | 0.09 | 0.01 | 86 | 1005.9 |
| 20260506031109 | 45 | 267 | 0.0 | 0.0 | 0.01 | 0.09 | 0.01 | 85 | 1005.9 |
| 20260506030109 | 45 | 212 | 0.0 | 0.0 | 0.00 | 0.08 | 0.00 | 84 | 1005.9 |
| 20260506025109 | 45 | 202 | 0.0 | 1.0 | 0.00 | 0.12 | 0.00 | 83 | 1005.9 |
| 20260506023109 | 46 | 153 | 0.0 | 0.0 | 0.00 | 0.12 | 0.00 | 80 | 1006.1 |
| 20260506013113 | 47 | 208 | 0.0 | 0.0 | 0.00 | 0.23 | 0.00 | 86 | 1006.2 |
| 20260506011113 | 47 | 190 | 0.0 | 0.0 | 0.00 | 0.23 | 0.00 | 86 | 1006.3 |
| 20260506010113 | 48 | 175 | 0.0 | 0.0 | 0.00 | 0.23 | 0.00 | 85 | 1006.4 |
| 20260506003113 | 49 | 166 | 0.0 | 0.0 | 0.00 | 0.28 | 0.00 | 82 | 1006.6 |
| 20260506002113 | 49 | 166 | 0.0 | 0.0 | 0.00 | 0.28 | 0.00 | 82 | 1006.7 |
| 20260506000112 | 49 | 157 | 0.0 | 0.0 | 0.00 | 0.28 | 0.00 | 83 | 1006.7 |
| 20260505233112 | 49 | 221 | 0.0 | 0.0 | 0.00 | 0.28 | 0.00 | 84 | 1007.0 |
| 20260505232113 | 49 | 229 | 0.0 | 0.0 | 0.00 | 0.28 | 0.00 | 85 | 1007.0 |
| 20260505231112 | 50 | 229 | 0.0 | 0.0 | 0.00 | 0.28 | 0.00 | 85 | 1007.0 |
| 20260505223112 | 50 | 292 | 0.0 | 0.0 | 0.00 | 0.29 | 0.00 | 85 | 1007.2 |
| 20260505222111 | 50 | 156 | 0.0 | 0.0 | 0.00 | 0.29 | 0.00 | 85 | 1007.3 |
| 20260505221112 | 50 | 156 | 0.0 | 0.0 | 0.00 | 0.29 | 0.00 | 86 | 1007.4 |
| 20260505215111 | 50 | 156 | 0.0 | 0.0 | 0.00 | 0.33 | 0.33 | 86 | 1007.4 |
| 20260505213111 | 50 | 240 | 0.0 | 0.0 | 0.00 | 0.33 | 0.33 | 87 | 1007.5 |
| 20260505212111 | 50 | 240 | 0.0 | 0.0 | 0.00 | 0.33 | 0.33 | 87 | 1007.7 |
| 20260505210111 | 50 | 240 | 0.0 | 0.0 | 0.00 | 0.33 | 0.33 | 88 | 1007.7 |
| 20260505205110 | 50 | 240 | 0.0 | 0.0 | 0.00 | 0.33 | 0.33 | 88 | 1007.7 |
| 20260505203110 | 50 | 240 | 0.0 | 0.0 | 0.00 | 0.33 | 0.33 | 88 | 1007.7 |
| 20260505202110 | 50 | 240 | 0.0 | 0.0 | 0.00 | 0.33 | 0.33 | 87 | 1007.7 |
| 20260505201110 | 50 | 240 | 0.0 | 0.0 | 0.00 | 0.33 | 0.33 | 87 | 1007.7 |
| 20260505200110 | 50 | 240 | 0.0 | 0.0 | 0.00 | 0.33 | 0.33 | 87 | 1007.7 |
| 20260505194110 | 50 | 240 | 0.0 | 0.0 | 0.00 | 0.33 | 0.33 | 87 | 1007.7 |